Regional Weather Roundup
Issued by NWS

Home | Current Version | Previous Version | Graphics & Text | Print | Product List | Glossary On
Versions: 1 2 3 4 5 6 7 8 9 10 11 12 13 14 15 16 17 18 19 20 21 22 23 24 25 26 27 28 29 30 31 32 33 34 35 36 37 38 39 40 41 42 43 44 45 46 47 48 49 50
339
ASUS43 KBIS 171702
RWRND

NORTH DAKOTA REGIONAL WEATHER ROUNDUP
NATIONAL WEATHER SERVICE BISMARCK ND
1100 AM CST TUE JAN 17 2017

NOTE: "FAIR" INDICATES FEW OR NO CLOUDS BELOW 12,000 FEET WITH NO
SIGNIFICANT WEATHER AND/OR OBSTRUCTIONS TO VISIBILITY.


NDZ001>003-009>011-017-171800-
NORTHWEST NORTH DAKOTA

CITY           SKY/WX    TMP DP  RH WIND       PRES   REMARKS
WILLISTON      FAIR      20  11  68 SW12      29.78F WCI   8
MINOT          FAIR      25  13  60 S20       29.76F WCI  11
$$

NDZ018>021-031>035-040>046-171800-
SOUTHWEST NORTH DAKOTA

CITY           SKY/WX    TMP DP  RH WIND       PRES   REMARKS
BISMARCK       FAIR       9   5  84 CALM      29.92F
DICKINSON      FAIR      26  13  57 SW16      29.81S WCI  14
GARRISON         N/A     15  10  80 S8        29.82F WCI   4
HETTINGER ARPT CLOUDY    18   7  62 W3        29.90S
$$

NDZ004>008-012>016-024-026-027-054-171800-
NORTHEAST NORTH DAKOTA

CITY           SKY/WX    TMP DP  RH WIND       PRES   REMARKS
GRAND FORKS    CLOUDY    14   9  80 S9        29.91F WCI   2
GRND FRKS AFB  CLOUDY    18  11  75 S9        29.89F WCI   6
DEVILS LAKE    FAIR      20  16  84 S8        29.85F WCI  10
$$

NDZ022-023-025-028>030-036>039-047>053-171800-
SOUTHEAST NORTH DAKOTA

CITY           SKY/WX    TMP DP  RH WIND       PRES   REMARKS
FARGO          CLOUDY    13   9  84 S10       29.98S WCI   0
JAMESTOWN      FAIR      20  15  81 SW6       29.91F WCI  12
$$





USA.gov is the U.S. government's official web portal to all federal, state and local government web resources and services.